| time (UTC) | temp F | wind direction | speed MPH | gust MPH | rain 1hr in | rain 24hr in | rain mn in | humidity % | barometer mb |
| 20260506091541 | 28 | 352 | 0.0 | 0.0 | 0.00 | 0.12 | 0.00 | 97 | 979.3 |
| 20260506090435 | 28 | 5 | 0.0 | 0.0 | 0.00 | 0.12 | 0.00 | 97 | 979.3 |
| 20260506085934 | 28 | 333 | 0.0 | 0.0 | 0.00 | 0.12 | 0.00 | 97 | 979.3 |
| 20260506085437 | 28 | 321 | 0.0 | 1.0 | 0.00 | 0.12 | 0.00 | 97 | 979.4 |
| 20260506085433 | 28 | 316 | 0.0 | 1.0 | 0.00 | 0.12 | 0.00 | 97 | 979.4 |
| 20260506084932 | 28 | 17 | 0.0 | 1.0 | 0.00 | 0.12 | 0.00 | 97 | 979.4 |
| 20260506083932 | 29 | 338 | 0.0 | 2.0 | 0.00 | 0.12 | 0.00 | 97 | 979.5 |
| 20260506083432 | 29 | 310 | 0.0 | 2.0 | 0.00 | 0.12 | 0.00 | 97 | 979.6 |
| 20260506082931 | 29 | 330 | 0.0 | 1.0 | 0.00 | 0.12 | 0.00 | 97 | 979.6 |
| 20260506082429 | 29 | 8 | 0.0 | 2.0 | 0.00 | 0.12 | 0.00 | 97 | 979.6 |
| 20260506081929 | 29 | 319 | 0.0 | 2.0 | 0.00 | 0.12 | 0.00 | 97 | 979.6 |
| 20260506081429 | 29 | 323 | 0.0 | 1.0 | 0.00 | 0.12 | 0.00 | 97 | 979.6 |
| 20260506080930 | 29 | 321 | 0.0 | 1.0 | 0.00 | 0.12 | 0.00 | 97 | 979.5 |
| 20260506080431 | 29 | 12 | 0.0 | 1.0 | 0.00 | 0.12 | 0.00 | 97 | 979.3 |
| 20260506073427 | 29 | 13 | 0.0 | 1.0 | 0.00 | 0.13 | 0.00 | 97 | 979.4 |
| 20260506072928 | 29 | 309 | 0.0 | 1.0 | 0.00 | 0.13 | 0.00 | 97 | 979.4 |
| 20260506072428 | 29 | 17 | 0.0 | 1.0 | 0.00 | 0.13 | 0.00 | 97 | 979.4 |
| 20260506071928 | 29 | 311 | 0.0 | 1.0 | 0.00 | 0.13 | 0.00 | 97 | 979.4 |
| 20260506071428 | 29 | 318 | 0.0 | 1.0 | 0.00 | 0.13 | 0.00 | 97 | 979.5 |
| 20260506070926 | 29 | 334 | 0.0 | 0.0 | 0.00 | 0.13 | 0.00 | 97 | 979.5 |
| 20260506070426 | 29 | 335 | 0.0 | 0.0 | 0.00 | 0.14 | 0.00 | 97 | 979.4 |
| 20260506062425 | 29 | 348 | 0.0 | 0.0 | 0.00 | 0.17 | 0.00 | 97 | 979.3 |
| 20260506061929 | 29 | 337 | 0.0 | 1.0 | 0.00 | 0.17 | 0.00 | 97 | 979.2 |
| 20260506061925 | 29 | 327 | 0.0 | 1.0 | 0.00 | 0.17 | 0.00 | 97 | 979.3 |
| 20260506060925 | 29 | 353 | 0.0 | 0.0 | 0.00 | 0.17 | 0.00 | 97 | 979.1 |
| 20260506060425 | 29 | 335 | 0.0 | 0.0 | 0.00 | 0.17 | 0.00 | 97 | 979.1 |
| 20260506050414 | 29 | 26 | 0.0 | 2.0 | 0.00 | 0.19 | 0.17 | 97 | 978.8 |
| 20260506044913 | 29 | 315 | 0.0 | 2.0 | 0.00 | 0.20 | 0.17 | 96 | 979.1 |
| 20260506044412 | 29 | 319 | 0.0 | 4.0 | 0.00 | 0.21 | 0.17 | 97 | 978.9 |
| 20260506043916 | 29 | 338 | 0.0 | 4.0 | 0.00 | 0.21 | 0.17 | 97 | 978.9 |
| 20260506043912 | 29 | 304 | 0.0 | 0.0 | 0.00 | 0.21 | 0.17 | 97 | 978.8 |
| 20260506043516 | 29 | 326 | 0.0 | 0.0 | 0.00 | 0.21 | 0.17 | 97 | 978.7 |
| 20260506042408 | 29 | 344 | 0.0 | 1.0 | 0.00 | 0.21 | 0.17 | 97 | 978.7 |
| 20260506041912 | 29 | 340 | 0.0 | 2.0 | 0.00 | 0.21 | 0.17 | 97 | 978.8 |
| 20260506041908 | 29 | 342 | 0.0 | 1.0 | 0.00 | 0.21 | 0.17 | 97 | 978.7 |
| 20260506040906 | 29 | 319 | 0.0 | 2.0 | 0.00 | 0.21 | 0.17 | 97 | 978.7 |
| 20260506040406 | 29 | 310 | 0.0 | 2.0 | 0.00 | 0.22 | 0.17 | 97 | 978.8 |
| 20260506035906 | 29 | 352 | 0.0 | 2.0 | 0.00 | 0.22 | 0.17 | 97 | 978.8 |
| 20260506035408 | 29 | 42 | 0.0 | 2.0 | 0.00 | 0.23 | 0.17 | 97 | 978.8 |
| 20260506035404 | 29 | 329 | 0.0 | 0.0 | 0.00 | 0.23 | 0.17 | 97 | 978.9 |
| 20260506034405 | 29 | 314 | 0.0 | 2.0 | 0.00 | 0.24 | 0.17 | 97 | 978.7 |
| 20260506033904 | 29 | 319 | 0.0 | 2.0 | 0.00 | 0.24 | 0.17 | 97 | 978.5 |
| 20260506033410 | 29 | 28 | 0.0 | 1.0 | 0.00 | 0.24 | 0.17 | 96 | 978.3 |
| 20260506033404 | 29 | 309 | 0.0 | 2.0 | 0.00 | 0.24 | 0.17 | 96 | 978.5 |
| 20260506032904 | 29 | 315 | 0.0 | 2.0 | 0.00 | 0.24 | 0.17 | 96 | 978.5 |
| 20260506031905 | 29 | 349 | 0.0 | 1.0 | 0.00 | 0.25 | 0.17 | 96 | 978.2 |
| 20260506031404 | 29 | 306 | 0.0 | 3.0 | 0.00 | 0.25 | 0.17 | 96 | 978.1 |
| 20260506030904 | 29 | 295 | 0.0 | 3.0 | 0.00 | 0.25 | 0.17 | 96 | 978.0 |
| 20260506030408 | 29 | 329 | 0.0 | 2.0 | 0.00 | 0.25 | 0.17 | 96 | 977.9 |
| 20260506030404 | 29 | 297 | 0.0 | 2.0 | 0.00 | 0.25 | 0.17 | 96 | 978.0 |
| 20260506025404 | 29 | 309 | 0.0 | 1.0 | 0.00 | 0.25 | 0.17 | 96 | 977.8 |
| 20260506024902 | 29 | 306 | 0.0 | 2.0 | 0.00 | 0.25 | 0.17 | 96 | 977.8 |
| 20260506024402 | 29 | 345 | 0.0 | 2.0 | 0.00 | 0.25 | 0.17 | 96 | 977.8 |
| 20260506023902 | 29 | 295 | 0.0 | 2.0 | 0.00 | 0.25 | 0.17 | 96 | 977.6 |
| 20260506023402 | 29 | 315 | 0.0 | 2.0 | 0.00 | 0.25 | 0.17 | 96 | 977.5 |
| 20260506022902 | 29 | 352 | 0.0 | 2.0 | 0.00 | 0.25 | 0.17 | 96 | 977.3 |
| 20260506022401 | 29 | 306 | 0.0 | 1.0 | 0.00 | 0.25 | 0.17 | 96 | 977.2 |
| 20260506021904 | 29 | 2 | 0.0 | 1.0 | 0.00 | 0.25 | 0.17 | 96 | 977.2 |
| 20260506021406 | 29 | 217 | 0.0 | 2.0 | 0.00 | 0.25 | 0.17 | 96 | 976.9 |
| 20260506021401 | 29 | 5 | 0.0 | 2.0 | 0.00 | 0.25 | 0.17 | 96 | 977.0 |
| 20260506020401 | 29 | 314 | 0.0 | 2.0 | 0.00 | 0.25 | 0.17 | 96 | 976.9 |
| 20260506015900 | 29 | 290 | 0.0 | 2.0 | 0.00 | 0.25 | 0.17 | 96 | 976.9 |
| 20260506015400 | 29 | 311 | 0.0 | 2.0 | 0.00 | 0.25 | 0.17 | 96 | 976.9 |
| 20260506014900 | 29 | 339 | 1.0 | 3.0 | 0.00 | 0.25 | 0.17 | 96 | 976.9 |
| 20260506014400 | 29 | 321 | 1.0 | 4.0 | 0.00 | 0.25 | 0.17 | 96 | 976.9 |
| 20260506013900 | 29 | 319 | 1.0 | 4.0 | 0.00 | 0.25 | 0.17 | 96 | 976.9 |
| 20260506013400 | 30 | 6 | 1.0 | 3.0 | 0.00 | 0.25 | 0.17 | 96 | 976.7 |
| 20260506012900 | 30 | 11 | 0.0 | 3.0 | 0.00 | 0.25 | 0.17 | 96 | 976.5 |
| 20260506012405 | 30 | 301 | 1.0 | 4.0 | 0.00 | 0.25 | 0.17 | 96 | 976.6 |
| 20260506012359 | 30 | 296 | 0.0 | 5.0 | 0.00 | 0.25 | 0.17 | 96 | 976.5 |
| 20260506011859 | 30 | 299 | 1.0 | 5.0 | 0.00 | 0.25 | 0.17 | 96 | 976.6 |
| 20260506010859 | 30 | 341 | 1.0 | 4.0 | 0.00 | 0.25 | 0.17 | 96 | 976.5 |
| 20260506010359 | 30 | 307 | 1.0 | 4.0 | 0.00 | 0.25 | 0.17 | 96 | 976.5 |
| 20260506005859 | 30 | 306 | 1.0 | 3.0 | 0.00 | 0.25 | 0.17 | 96 | 976.3 |
| 20260506005357 | 30 | 322 | 1.0 | 3.0 | 0.00 | 0.25 | 0.17 | 96 | 976.3 |
| 20260506004903 | 31 | 312 | 1.0 | 4.0 | 0.00 | 0.25 | 0.17 | 96 | 976.3 |
| 20260506004857 | 31 | 296 | 1.0 | 3.0 | 0.00 | 0.25 | 0.17 | 96 | 976.5 |
| 20260506004358 | 31 | 347 | 1.0 | 3.0 | 0.00 | 0.25 | 0.17 | 96 | 976.3 |
| 20260506003358 | 31 | 353 | 0.0 | 4.0 | 0.00 | 0.25 | 0.17 | 96 | 976.3 |
| 20260506002859 | 31 | 334 | 0.0 | 3.0 | 0.01 | 0.25 | 0.17 | 96 | 976.3 |
| 20260506002402 | 31 | 302 | 1.0 | 4.0 | 0.01 | 0.25 | 0.17 | 96 | 976.2 |
| 20260506002358 | 31 | 288 | 1.0 | 3.0 | 0.01 | 0.25 | 0.17 | 96 | 976.2 |
| 20260506001358 | 32 | 222 | 1.0 | 4.0 | 0.01 | 0.25 | 0.17 | 96 | 976.2 |
| 20260506000858 | 32 | 319 | 0.0 | 2.0 | 0.01 | 0.25 | 0.17 | 97 | 976.1 |
| 20260506000401 | 32 | 294 | 0.0 | 2.0 | 0.01 | 0.25 | 0.17 | 97 | 976.0 |
| 20260505235858 | 32 | 18 | 0.0 | 2.0 | 0.01 | 0.25 | 0.17 | 97 | 976.0 |
| 20260505235402 | 32 | 346 | 0.0 | 1.0 | 0.01 | 0.25 | 0.17 | 96 | 975.9 |
| 20260505235358 | 32 | 339 | 0.0 | 2.0 | 0.01 | 0.25 | 0.17 | 96 | 975.9 |
| 20260505234358 | 32 | 4 | 0.0 | 3.0 | 0.01 | 0.25 | 0.17 | 96 | 975.9 |
| 20260505233856 | 33 | 326 | 1.0 | 3.0 | 0.01 | 0.25 | 0.17 | 96 | 975.9 |
| 20260505233400 | 33 | 337 | 2.0 | 7.0 | 0.00 | 0.24 | 0.16 | 96 | 975.6 |
| 20260505233356 | 33 | 351 | 1.0 | 3.0 | 0.01 | 0.25 | 0.17 | 96 | 975.6 |
| 20260505232355 | 33 | 340 | 3.0 | 7.0 | 0.00 | 0.24 | 0.16 | 96 | 975.7 |
| 20260505231859 | 34 | 321 | 2.0 | 7.0 | 0.00 | 0.24 | 0.16 | 97 | 975.6 |
| 20260505231855 | 34 | 13 | 3.0 | 7.0 | 0.00 | 0.24 | 0.16 | 96 | 975.7 |
| 20260505231501 | 34 | 329 | 2.0 | 6.0 | 0.00 | 0.24 | 0.16 | 97 | 975.5 |
| 20260505230354 | 34 | 342 | 2.0 | 6.0 | 0.00 | 0.24 | 0.16 | 97 | 975.3 |
| 20260505225852 | 34 | 350 | 2.0 | 7.0 | 0.00 | 0.24 | 0.16 | 97 | 975.2 |
| 20260505225352 | 34 | 334 | 2.0 | 7.0 | 0.00 | 0.24 | 0.16 | 97 | 975.0 |
| 20260505224851 | 34 | 30 | 3.0 | 7.0 | 0.00 | 0.24 | 0.16 | 97 | 975.0 |
| 20260505224352 | 34 | 325 | 3.0 | 7.0 | 0.00 | 0.24 | 0.16 | 96 | 974.9 |
| 20260505223856 | 35 | 314 | 2.0 | 5.0 | 0.00 | 0.24 | 0.16 | 97 | 974.7 |
| 20260505223852 | 35 | 326 | 2.0 | 7.0 | 0.00 | 0.24 | 0.16 | 96 | 974.8 |
| 20260505222852 | 35 | 17 | 2.0 | 5.0 | 0.00 | 0.24 | 0.16 | 97 | 974.7 |
| 20260505222352 | 35 | 8 | 2.0 | 7.0 | 0.01 | 0.24 | 0.16 | 96 | 974.7 |
| 20260505221850 | 35 | 323 | 2.0 | 7.0 | 0.01 | 0.24 | 0.16 | 97 | 974.6 |
| 20260505221350 | 35 | 320 | 2.0 | 6.0 | 0.01 | 0.24 | 0.16 | 97 | 974.6 |
| 20260505220850 | 35 | 19 | 3.0 | 7.0 | 0.01 | 0.24 | 0.16 | 97 | 974.6 |
| 20260505220350 | 35 | 25 | 3.0 | 7.0 | 0.01 | 0.24 | 0.16 | 97 | 974.7 |
| 20260505215850 | 35 | 314 | 2.0 | 7.0 | 0.01 | 0.24 | 0.16 | 96 | 974.7 |
| 20260505215350 | 35 | 326 | 2.0 | 9.0 | 0.01 | 0.24 | 0.16 | 97 | 974.8 |
| 20260505214850 | 35 | 6 | 3.0 | 9.0 | 0.01 | 0.24 | 0.16 | 96 | 974.8 |
| 20260505214350 | 35 | 307 | 2.0 | 8.0 | 0.01 | 0.24 | 0.16 | 96 | 974.8 |
| 20260505213854 | 35 | 340 | 3.0 | 8.0 | 0.01 | 0.24 | 0.16 | 97 | 974.9 |
| 20260505213849 | 35 | 324 | 2.0 | 8.0 | 0.01 | 0.24 | 0.16 | 97 | 974.9 |
| 20260505212847 | 35 | 324 | 3.0 | 8.0 | 0.01 | 0.24 | 0.16 | 96 | 975.0 |
| 20260505212345 | 36 | 321 | 3.0 | 8.0 | 0.00 | 0.23 | 0.15 | 97 | 975.0 |
| 20260505211845 | 36 | 26 | 3.0 | 8.0 | 0.00 | 0.23 | 0.15 | 96 | 975.2 |
| 20260505211346 | 36 | 18 | 3.0 | 8.0 | 0.00 | 0.23 | 0.15 | 96 | 975.3 |
| 20260505211342 | 36 | 309 | 3.0 | 8.0 | 0.00 | 0.23 | 0.15 | 97 | 975.4 |
| 20260505210339 | 36 | 341 | 3.0 | 8.0 | 0.00 | 0.23 | 0.15 | 97 | 975.4 |
| 20260505205839 | 36 | 358 | 3.0 | 8.0 | 0.00 | 0.23 | 0.15 | 97 | 975.4 |
| 20260505205337 | 36 | 344 | 3.0 | 8.0 | 0.00 | 0.23 | 0.15 | 97 | 975.5 |
| 20260505204835 | 36 | 339 | 3.0 | 7.0 | 0.00 | 0.23 | 0.15 | 97 | 975.5 |
| 20260505204334 | 36 | 340 | 2.0 | 7.0 | 0.00 | 0.23 | 0.15 | 97 | 975.5 |
| 20260505203832 | 36 | 345 | 1.0 | 6.0 | 0.00 | 0.23 | 0.15 | 97 | 975.5 |
| 20260505203329 | 36 | 11 | 2.0 | 7.0 | 0.00 | 0.23 | 0.15 | 97 | 975.7 |
| 20260505202829 | 36 | 15 | 3.0 | 9.0 | 0.00 | 0.23 | 0.15 | 97 | 975.9 |
| 20260505202329 | 36 | 356 | 2.0 | 9.0 | 0.00 | 0.23 | 0.15 | 97 | 976.0 |
| 20260505201828 | 36 | 342 | 1.0 | 4.0 | 0.00 | 0.23 | 0.15 | 97 | 976.0 |
| 20260505201334 | 36 | 11 | 2.0 | 5.0 | 0.01 | 0.23 | 0.15 | 97 | 976.0 |
| 20260505200833 | 36 | 335 | 1.0 | 5.0 | 0.01 | 0.23 | 0.15 | 97 | 976.1 |
| 20260505200829 | 36 | 340 | 2.0 | 5.0 | 0.01 | 0.23 | 0.15 | 97 | 976.1 |
| 20260505195828 | 36 | 13 | 1.0 | 5.0 | 0.01 | 0.23 | 0.15 | 97 | 976.1 |
| 20260505195327 | 36 | 332 | 1.0 | 5.0 | 0.01 | 0.23 | 0.15 | 97 | 976.0 |
| 20260505194827 | 36 | 326 | 1.0 | 4.0 | 0.01 | 0.23 | 0.15 | 97 | 976.1 |
| 20260505194327 | 36 | 316 | 1.0 | 3.0 | 0.01 | 0.23 | 0.15 | 97 | 976.2 |
| 20260505193831 | 35 | 2 | 1.0 | 6.0 | 0.02 | 0.23 | 0.15 | 96 | 976.2 |
| 20260505193827 | 36 | 354 | 1.0 | 6.0 | 0.02 | 0.23 | 0.15 | 97 | 976.1 |
| 20260505192823 | 36 | 321 | 0.0 | 3.0 | 0.02 | 0.23 | 0.15 | 97 | 976.3 |
| 20260505192323 | 36 | 323 | 0.0 | 2.0 | 0.02 | 0.23 | 0.15 | 97 | 976.3 |
| 20260505191827 | 36 | 129 | 0.0 | 2.0 | 0.01 | 0.22 | 0.14 | 97 | 976.5 |
| 20260505191822 | 36 | 261 | 0.0 | 1.0 | 0.02 | 0.23 | 0.15 | 97 | 976.5 |
| 20260505190823 | 36 | 169 | 0.0 | 2.0 | 0.01 | 0.22 | 0.14 | 97 | 976.5 |
| 20260505190325 | 35 | 343 | 0.0 | 3.0 | 0.01 | 0.22 | 0.14 | 97 | 976.6 |
| 20260505185827 | 35 | 333 | 0.0 | 2.0 | 0.01 | 0.22 | 0.14 | 96 | 976.7 |
| 20260505185823 | 35 | 314 | 0.0 | 3.0 | 0.01 | 0.22 | 0.14 | 96 | 976.6 |
| 20260505184823 | 35 | 303 | 0.0 | 1.0 | 0.01 | 0.22 | 0.14 | 97 | 976.7 |
| 20260505184327 | 36 | 336 | 0.0 | 3.0 | 0.00 | 0.21 | 0.13 | 96 | 976.7 |
| 20260505184322 | 35 | 336 | 0.0 | 3.0 | 0.01 | 0.22 | 0.14 | 96 | 976.7 |
| 20260505183321 | 36 | 255 | 0.0 | 3.0 | 0.00 | 0.21 | 0.13 | 97 | 976.8 |
| 20260505182821 | 36 | 5 | 0.0 | 3.0 | 0.00 | 0.21 | 0.13 | 96 | 976.8 |
| 20260505182321 | 36 | 345 | 0.0 | 1.0 | 0.00 | 0.21 | 0.13 | 97 | 976.8 |
| 20260505181821 | 36 | 336 | 0.0 | 1.0 | 0.00 | 0.21 | 0.13 | 97 | 976.8 |
| 20260505181325 | 36 | 342 | 0.0 | 1.0 | 0.01 | 0.21 | 0.13 | 97 | 977.0 |
| 20260505181321 | 36 | 346 | 0.0 | 0.0 | 0.00 | 0.21 | 0.13 | 97 | 977.0 |
| 20260505180321 | 36 | 326 | 0.0 | 1.0 | 0.01 | 0.21 | 0.13 | 97 | 977.3 |
| 20260505175821 | 36 | 285 | 0.0 | 1.0 | 0.01 | 0.21 | 0.13 | 97 | 977.2 |
| 20260505175320 | 35 | 284 | 0.0 | 1.0 | 0.01 | 0.21 | 0.13 | 97 | 977.2 |
| 20260505174823 | 35 | 0 | 0.0 | 1.0 | 0.01 | 0.21 | 0.13 | 97 | 977.3 |
| 20260505174819 | 35 | 297 | 0.0 | 1.0 | 0.01 | 0.21 | 0.13 | 97 | 977.2 |
| 20260505173819 | 35 | 321 | 0.0 | 1.0 | 0.01 | 0.21 | 0.13 | 97 | 977.3 |
| 20260505173320 | 35 | 311 | 0.0 | 1.0 | 0.01 | 0.21 | 0.13 | 97 | 977.3 |
| 20260505172819 | 35 | 322 | 0.0 | 1.0 | 0.01 | 0.21 | 0.13 | 97 | 977.3 |
| 20260505172319 | 35 | 309 | 0.0 | 1.0 | 0.01 | 0.21 | 0.13 | 97 | 977.4 |
| 20260505171819 | 35 | 329 | 0.0 | 3.0 | 0.01 | 0.21 | 0.13 | 97 | 977.4 |
| 20260505171319 | 35 | 287 | 0.0 | 3.0 | 0.01 | 0.21 | 0.13 | 97 | 977.5 |
| 20260505170819 | 35 | 3 | 0.0 | 2.0 | 0.00 | 0.20 | 0.12 | 97 | 977.5 |
| 20260505170318 | 35 | 275 | 0.0 | 2.0 | 0.00 | 0.20 | 0.12 | 97 | 977.6 |
| 20260505165817 | 35 | 323 | 0.0 | 2.0 | 0.00 | 0.20 | 0.12 | 97 | 977.6 |
| 20260505165318 | 35 | 4 | 0.0 | 1.0 | 0.00 | 0.20 | 0.12 | 97 | 977.6 |
| 20260505164821 | 34 | 355 | 0.0 | 2.0 | 0.00 | 0.20 | 0.12 | 97 | 977.8 |
| 20260505164815 | 35 | 324 | 0.0 | 1.0 | 0.00 | 0.20 | 0.12 | 97 | 977.6 |
| 20260505164315 | 35 | 339 | 0.0 | 2.0 | 0.00 | 0.20 | 0.12 | 97 | 977.8 |
| 20260505163319 | 34 | 17 | 0.0 | 1.0 | 0.00 | 0.20 | 0.12 | 97 | 977.9 |
| 20260505163314 | 34 | 6 | 0.0 | 1.0 | 0.00 | 0.20 | 0.12 | 97 | 977.9 |
| 20260505162313 | 34 | 151 | 0.0 | 1.0 | 0.00 | 0.20 | 0.12 | 97 | 977.8 |
| 20260505161811 | 35 | 290 | 0.0 | 1.0 | 0.00 | 0.20 | 0.12 | 97 | 977.8 |
| 20260505161310 | 34 | 319 | 0.0 | 1.0 | 0.00 | 0.20 | 0.12 | 97 | 977.8 |
| 20260505160809 | 34 | 316 | 0.0 | 1.0 | 0.00 | 0.20 | 0.12 | 97 | 977.9 |
| 20260505160313 | 34 | 1 | 1.0 | 4.0 | 0.00 | 0.20 | 0.12 | 97 | 977.9 |
| 20260505160309 | 34 | 82 | 1.0 | 4.0 | 0.00 | 0.20 | 0.12 | 97 | 977.9 |
| 20260505152808 | 34 | 345 | 0.0 | 3.0 | 0.01 | 0.20 | 0.12 | 97 | 977.9 |
| 20260505152307 | 34 | 4 | 0.0 | 2.0 | 0.01 | 0.20 | 0.12 | 97 | 978.0 |
| 20260505151805 | 34 | 341 | 0.0 | 2.0 | 0.01 | 0.20 | 0.12 | 97 | 978.0 |
| 20260505151305 | 34 | 0 | 1.0 | 3.0 | 0.01 | 0.20 | 0.12 | 97 | 978.0 |
| 20260505150802 | 34 | 335 | 1.0 | 4.0 | 0.01 | 0.20 | 0.12 | 97 | 978.0 |
| 20260505150301 | 34 | 8 | 1.0 | 4.0 | 0.02 | 0.20 | 0.12 | 97 | 977.9 |
| 20260505140256 | 34 | 335 | 3.0 | 7.0 | 0.01 | 0.18 | 0.10 | 96 | 978.2 |
| 20260505130254 | 34 | 239 | 2.0 | 10.0 | 0.01 | 0.17 | 0.09 | 96 | 977.0 |
| 20260505130250 | 34 | 343 | 2.0 | 8.0 | 0.01 | 0.17 | 0.09 | 96 | 977.2 |
| 20260505124748 | 34 | 306 | 2.0 | 8.0 | 0.01 | 0.17 | 0.09 | 96 | 976.9 |
| 20260505124247 | 35 | 320 | 1.0 | 7.0 | 0.02 | 0.17 | 0.09 | 96 | 976.8 |
| 20260505123746 | 35 | 295 | 1.0 | 6.0 | 0.02 | 0.17 | 0.09 | 96 | 976.8 |
| 20260505123246 | 35 | 315 | 2.0 | 7.0 | 0.03 | 0.17 | 0.09 | 96 | 976.7 |
| 20260505122746 | 35 | 325 | 3.0 | 11.0 | 0.03 | 0.17 | 0.09 | 96 | 976.6 |
| 20260505122246 | 35 | 338 | 3.0 | 11.0 | 0.04 | 0.17 | 0.09 | 96 | 976.6 |
| 20260505121744 | 35 | 326 | 3.0 | 8.0 | 0.04 | 0.17 | 0.09 | 96 | 976.6 |
| 20260505121242 | 36 | 315 | 2.0 | 8.0 | 0.04 | 0.17 | 0.09 | 96 | 976.7 |
| 20260505120743 | 36 | 9 | 3.0 | 12.0 | 0.04 | 0.17 | 0.09 | 96 | 976.6 |
| 20260505120242 | 36 | 316 | 5.0 | 12.0 | 0.03 | 0.16 | 0.08 | 96 | 976.5 |
| 20260505115740 | 37 | 340 | 5.0 | 12.0 | 0.03 | 0.16 | 0.08 | 96 | 976.3 |
| 20260505115240 | 37 | 307 | 4.0 | 11.0 | 0.03 | 0.16 | 0.08 | 96 | 976.3 |
| 20260505114740 | 37 | 321 | 3.0 | 9.0 | 0.03 | 0.16 | 0.08 | 96 | 976.3 |
| 20260505114240 | 38 | 324 | 4.0 | 11.0 | 0.02 | 0.15 | 0.07 | 96 | 976.3 |
| 20260505113740 | 38 | 307 | 4.0 | 11.0 | 0.02 | 0.15 | 0.07 | 96 | 976.3 |
| 20260505113240 | 38 | 20 | 3.0 | 10.0 | 0.01 | 0.14 | 0.06 | 96 | 976.2 |
| 20260505112740 | 39 | 328 | 3.0 | 7.0 | 0.01 | 0.14 | 0.06 | 96 | 976.3 |
| 20260505112240 | 39 | 299 | 3.0 | 8.0 | 0.00 | 0.13 | 0.05 | 96 | 976.2 |
| 20260505111740 | 39 | 10 | 3.0 | 13.0 | 0.00 | 0.13 | 0.05 | 96 | 976.2 |
| 20260505110740 | 39 | 345 | 3.0 | 8.0 | 0.00 | 0.13 | 0.05 | 95 | 976.1 |
| 20260505110240 | 40 | 358 | 4.0 | 11.0 | 0.00 | 0.13 | 0.05 | 95 | 976.0 |
| 20260505101738 | 43 | 321 | 0.0 | 3.0 | 0.00 | 0.13 | 0.05 | 96 | 975.2 |
| 20260505101237 | 43 | 240 | 0.0 | 3.0 | 0.00 | 0.13 | 0.05 | 96 | 975.2 |
| 20260505100737 | 43 | 211 | 0.0 | 2.0 | 0.00 | 0.13 | 0.05 | 96 | 975.0 |
| 20260505100236 | 43 | 224 | 0.0 | 2.0 | 0.00 | 0.13 | 0.05 | 96 | 975.2 |
| 20260505095736 | 42 | 261 | 0.0 | 1.0 | 0.00 | 0.13 | 0.05 | 96 | 975.0 |
| 20260505095237 | 42 | 214 | 1.0 | 5.0 | 0.00 | 0.13 | 0.05 | 96 | 975.2 |
| 20260505094736 | 42 | 212 | 1.0 | 5.0 | 0.00 | 0.13 | 0.05 | 96 | 975.3 |
| 20260505094236 | 42 | 221 | 1.0 | 5.0 | 0.00 | 0.13 | 0.05 | 96 | 975.2 |
| 20260505093736 | 42 | 337 | 1.0 | 4.0 | 0.00 | 0.13 | 0.05 | 96 | 974.4 |
| 20260505093236 | 42 | 333 | 0.0 | 4.0 | 0.00 | 0.13 | 0.05 | 96 | 974.2 |
| 20260505092736 | 42 | 332 | 0.0 | 1.0 | 0.00 | 0.13 | 0.05 | 96 | 974.7 |
| 20260505092236 | 42 | 340 | 0.0 | 1.0 | 0.00 | 0.13 | 0.05 | 96 | 975.0 |
| 20260505091734 | 42 | 340 | 0.0 | 0.0 | 0.00 | 0.13 | 0.05 | 96 | 975.2 |